owner,sensor,date,latitude,longitude,air_temperature,qcFlag 
COMPS,ioos:station:USF.COMPS:ARP:1,2018-01-01T00:00:00Z,28.4330,-82.6670,15.83,1111122 
COMPS,ioos:station:USF.COMPS:ARP:1,2018-01-01T00:06:00Z,28.4330,-82.6670,15.97,1111122 
COMPS,ioos:station:USF.COMPS:ARP:1,2018-01-01T00:12:00Z,28.4330,-82.6670,16.23,1111122 
COMPS,ioos:station:USF.COMPS:ARP:1,2018-01-01T00:18:00Z,28.4330,-82.6670,16.16,1111122 
COMPS,ioos:station:USF.COMPS:ARP:1,2018-01-01T00:24:00Z,28.4330,-82.6670,16.06,1111122 
COMPS,ioos:station:USF.COMPS:ARP:1,2018-01-01T00:30:00Z,28.4330,-82.6670,15.87,1111122 
COMPS,ioos:station:USF.COMPS:ARP:1,2018-01-01T00:36:00Z,28.4330,-82.6670,15.92,1111122 
COMPS,ioos:station:USF.COMPS:ARP:1,2018-01-01T00:42:00Z,28.4330,-82.6670,16.04,1111122 
COMPS,ioos:station:USF.COMPS:ARP:1,2018-01-01T00:48:00Z,28.4330,-82.6670,16.13,1111122 
COMPS,ioos:station:USF.COMPS:ARP:1,2018-01-01T00:54:00Z,28.4330,-82.6670,16.38,1111122 
COMPS,ioos:station:USF.COMPS:ARP:1,2018-01-01T01:00:00Z,28.4330,-82.6670,16.36,1111122 
COMPS,ioos:station:USF.COMPS:ARP:1,2018-01-01T01:06:00Z,28.4330,-82.6670,16.23,1111122 
COMPS,ioos:station:USF.COMPS:ARP:1,2018-01-01T01:12:00Z,28.4330,-82.6670,16.21,1111122 
COMPS,ioos:station:USF.COMPS:ARP:1,2018-01-01T01:18:00Z,28.4330,-82.6670,16.31,1111122 
COMPS,ioos:station:USF.COMPS:ARP:1,2018-01-01T01:24:00Z,28.4330,-82.6670,16.43,1111122 
COMPS,ioos:station:USF.COMPS:ARP:1,2018-01-01T01:30:00Z,28.4330,-82.6670,16.34,1111122 
COMPS,ioos:station:USF.COMPS:ARP:1,2018-01-01T01:36:00Z,28.4330,-82.6670,16.3,1111122 
COMPS,ioos:station:USF.COMPS:ARP:1,2018-01-01T01:42:00Z,28.4330,-82.6670,16.19,1111122 
COMPS,ioos:station:USF.COMPS:ARP:1,2018-01-01T01:48:00Z,28.4330,-82.6670,16.28,1111122 
COMPS,ioos:station:USF.COMPS:ARP:1,2018-01-01T01:54:00Z,28.4330,-82.6670,16.42,1111122 
COMPS,ioos:station:USF.COMPS:ARP:1,2018-01-01T02:00:00Z,28.4330,-82.6670,16.32,1111122 
COMPS,ioos:station:USF.COMPS:ARP:1,2018-01-01T02:06:00Z,28.4330,-82.6670,16.31,1111122 
COMPS,ioos:station:USF.COMPS:ARP:1,2018-01-01T02:12:00Z,28.4330,-82.6670,16.3,1111122 
COMPS,ioos:station:USF.COMPS:ARP:1,2018-01-01T02:18:00Z,28.4330,-82.6670,16.39,1111122 
COMPS,ioos:station:USF.COMPS:ARP:1,2018-01-01T02:24:00Z,28.4330,-82.6670,16.43,1111122 
COMPS,ioos:station:USF.COMPS:ARP:1,2018-01-01T02:30:00Z,28.4330,-82.6670,16.3,1111122 
COMPS,ioos:station:USF.COMPS:ARP:1,2018-01-01T02:36:00Z,28.4330,-82.6670,16.4,1111122 
COMPS,ioos:station:USF.COMPS:ARP:1,2018-01-01T02:42:00Z,28.4330,-82.6670,16.5,1111122 
COMPS,ioos:station:USF.COMPS:ARP:1,2018-01-01T02:48:00Z,28.4330,-82.6670,16.57,1111122 
COMPS,ioos:station:USF.COMPS:ARP:1,2018-01-01T02:54:00Z,28.4330,-82.6670,16.67,1111122 
COMPS,ioos:station:USF.COMPS:ARP:1,2018-01-01T03:00:00Z,28.4330,-82.6670,16.58,1111122 
COMPS,ioos:station:USF.COMPS:ARP:1,2018-01-01T03:06:00Z,28.4330,-82.6670,16.57,1111122 
COMPS,ioos:station:USF.COMPS:ARP:1,2018-01-01T03:12:00Z,28.4330,-82.6670,16.57,1111122 
COMPS,ioos:station:USF.COMPS:ARP:1,2018-01-01T03:18:00Z,28.4330,-82.6670,16.6,1111122 
COMPS,ioos:station:USF.COMPS:ARP:1,2018-01-01T03:24:00Z,28.4330,-82.6670,16.73,1111122 
COMPS,ioos:station:USF.COMPS:ARP:1,2018-01-01T03:30:00Z,28.4330,-82.6670,16.82,1111122 
COMPS,ioos:station:USF.COMPS:ARP:1,2018-01-01T03:36:00Z,28.4330,-82.6670,16.77,1111122 
COMPS,ioos:station:USF.COMPS:ARP:1,2018-01-01T03:42:00Z,28.4330,-82.6670,16.72,1111122 
COMPS,ioos:station:USF.COMPS:ARP:1,2018-01-01T03:48:00Z,28.4330,-82.6670,16.71,1111122 
COMPS,ioos:station:USF.COMPS:ARP:1,2018-01-01T03:54:00Z,28.4330,-82.6670,16.81,1111122 
COMPS,ioos:station:USF.COMPS:ARP:1,2018-01-01T04:00:00Z,28.4330,-82.6670,16.71,1111122 
COMPS,ioos:station:USF.COMPS:ARP:1,2018-01-01T04:06:00Z,28.4330,-82.6670,16.66,1111122 
COMPS,ioos:station:USF.COMPS:ARP:1,2018-01-01T04:12:00Z,28.4330,-82.6670,16.58,1111122 
COMPS,ioos:station:USF.COMPS:ARP:1,2018-01-01T04:18:00Z,28.4330,-82.6670,16.57,1111122 
COMPS,ioos:station:USF.COMPS:ARP:1,2018-01-01T04:24:00Z,28.4330,-82.6670,16.57,1111122 
COMPS,ioos:station:USF.COMPS:ARP:1,2018-01-01T04:30:00Z,28.4330,-82.6670,16.61,1111122 
COMPS,ioos:station:USF.COMPS:ARP:1,2018-01-01T04:36:00Z,28.4330,-82.6670,16.61,1111122 
COMPS,ioos:station:USF.COMPS:ARP:1,2018-01-01T04:42:00Z,28.4330,-82.6670,16.65,1111122 
COMPS,ioos:station:USF.COMPS:ARP:1,2018-01-01T04:48:00Z,28.4330,-82.6670,16.69,1111122 
COMPS,ioos:station:USF.COMPS:ARP:1,2018-01-01T04:54:00Z,28.4330,-82.6670,16.84,1111122 
COMPS,ioos:station:USF.COMPS:ARP:1,2018-01-01T05:00:00Z,28.4330,-82.6670,16.67,1111122 
COMPS,ioos:station:USF.COMPS:ARP:1,2018-01-01T05:06:00Z,28.4330,-82.6670,16.6,1111122 
COMPS,ioos:station:USF.COMPS:ARP:1,2018-01-01T05:12:00Z,28.4330,-82.6670,16.57,1111122 
COMPS,ioos:station:USF.COMPS:ARP:1,2018-01-01T05:18:00Z,28.4330,-82.6670,16.57,1111122 
COMPS,ioos:station:USF.COMPS:ARP:1,2018-01-01T05:24:00Z,28.4330,-82.6670,16.57,1111122 
COMPS,ioos:station:USF.COMPS:ARP:1,2018-01-01T05:30:00Z,28.4330,-82.6670,16.6,1111122 
COMPS,ioos:station:USF.COMPS:ARP:1,2018-01-01T05:36:00Z,28.4330,-82.6670,16.7,1111122 
COMPS,ioos:station:USF.COMPS:ARP:1,2018-01-01T05:42:00Z,28.4330,-82.6670,16.7,1111122 
COMPS,ioos:station:USF.COMPS:ARP:1,2018-01-01T05:48:00Z,28.4330,-82.6670,16.71,1111122 
COMPS,ioos:station:USF.COMPS:ARP:1,2018-01-01T05:54:00Z,28.4330,-82.6670,16.82,1111122 
COMPS,ioos:station:USF.COMPS:ARP:1,2018-01-01T06:00:00Z,28.4330,-82.6670,16.7,1111122 
COMPS,ioos:station:USF.COMPS:ARP:1,2018-01-01T06:06:00Z,28.4330,-82.6670,16.7,1111122 
COMPS,ioos:station:USF.COMPS:ARP:1,2018-01-01T06:12:00Z,28.4330,-82.6670,16.63,1111122 
COMPS,ioos:station:USF.COMPS:ARP:1,2018-01-01T06:18:00Z,28.4330,-82.6670,16.57,1111122 
COMPS,ioos:station:USF.COMPS:ARP:1,2018-01-01T06:24:00Z,28.4330,-82.6670,16.57,1111122 
COMPS,ioos:station:USF.COMPS:ARP:1,2018-01-01T06:30:00Z,28.4330,-82.6670,16.59,1111122 
COMPS,ioos:station:USF.COMPS:ARP:1,2018-01-01T06:36:00Z,28.4330,-82.6670,16.57,1111122 
COMPS,ioos:station:USF.COMPS:ARP:1,2018-01-01T06:42:00Z,28.4330,-82.6670,16.57,1111122 
COMPS,ioos:station:USF.COMPS:ARP:1,2018-01-01T06:48:00Z,28.4330,-82.6670,16.57,1111122 
COMPS,ioos:station:USF.COMPS:ARP:1,2018-01-01T06:54:00Z,28.4330,-82.6670,16.66,1111122 
COMPS,ioos:station:USF.COMPS:ARP:1,2018-01-01T07:00:00Z,28.4330,-82.6670,16.57,1111122 
COMPS,ioos:station:USF.COMPS:ARP:1,2018-01-01T07:06:00Z,28.4330,-82.6670,16.57,1111122 
COMPS,ioos:station:USF.COMPS:ARP:1,2018-01-01T07:12:00Z,28.4330,-82.6670,16.48,1111122 
COMPS,ioos:station:USF.COMPS:ARP:1,2018-01-01T07:18:00Z,28.4330,-82.6670,16.46,1111122 
COMPS,ioos:station:USF.COMPS:ARP:1,2018-01-01T07:24:00Z,28.4330,-82.6670,16.44,1111122 
COMPS,ioos:station:USF.COMPS:ARP:1,2018-01-01T07:30:00Z,28.4330,-82.6670,16.44,1111122 
COMPS,ioos:station:USF.COMPS:ARP:1,2018-01-01T07:36:00Z,28.4330,-82.6670,16.43,1111122 
COMPS,ioos:station:USF.COMPS:ARP:1,2018-01-01T07:42:00Z,28.4330,-82.6670,16.43,1111122 
COMPS,ioos:station:USF.COMPS:ARP:1,2018-01-01T07:48:00Z,28.4330,-82.6670,16.41,1111122 
COMPS,ioos:station:USF.COMPS:ARP:1,2018-01-01T07:54:00Z,28.4330,-82.6670,16.55,1111122 
COMPS,ioos:station:USF.COMPS:ARP:1,2018-01-01T08:00:00Z,28.4330,-82.6670,16.46,1111122 
COMPS,ioos:station:USF.COMPS:ARP:1,2018-01-01T08:06:00Z,28.4330,-82.6670,16.46,1111122 
COMPS,ioos:station:USF.COMPS:ARP:1,2018-01-01T08:12:00Z,28.4330,-82.6670,16.46,1111122 
COMPS,ioos:station:USF.COMPS:ARP:1,2018-01-01T08:18:00Z,28.4330,-82.6670,16.48,1111122 
COMPS,ioos:station:USF.COMPS:ARP:1,2018-01-01T08:24:00Z,28.4330,-82.6670,16.44,1111122 
COMPS,ioos:station:USF.COMPS:ARP:1,2018-01-01T08:30:00Z,28.4330,-82.6670,16.43,1111122 
COMPS,ioos:station:USF.COMPS:ARP:1,2018-01-01T08:36:00Z,28.4330,-82.6670,16.42,1111122 
COMPS,ioos:station:USF.COMPS:ARP:1,2018-01-01T08:42:00Z,28.4330,-82.6670,16.4,1111122 
COMPS,ioos:station:USF.COMPS:ARP:1,2018-01-01T08:48:00Z,28.4330,-82.6670,16.38,1111122 
COMPS,ioos:station:USF.COMPS:ARP:1,2018-01-01T08:54:00Z,28.4330,-82.6670,16.51,1111122 
COMPS,ioos:station:USF.COMPS:ARP:1,2018-01-01T09:00:00Z,28.4330,-82.6670,16.41,1111122 
COMPS,ioos:station:USF.COMPS:ARP:1,2018-01-01T09:06:00Z,28.4330,-82.6670,16.42,1111122 
COMPS,ioos:station:USF.COMPS:ARP:1,2018-01-01T09:12:00Z,28.4330,-82.6670,16.43,1111122 
COMPS,ioos:station:USF.COMPS:ARP:1,2018-01-01T09:18:00Z,28.4330,-82.6670,16.42,1111122 
COMPS,ioos:station:USF.COMPS:ARP:1,2018-01-01T09:24:00Z,28.4330,-82.6670,16.37,1111122 
COMPS,ioos:station:USF.COMPS:ARP:1,2018-01-01T09:30:00Z,28.4330,-82.6670,16.35,1111122 
COMPS,ioos:station:USF.COMPS:ARP:1,2018-01-01T09:36:00Z,28.4330,-82.6670,16.34,1111122 
COMPS,ioos:station:USF.COMPS:ARP:1,2018-01-01T09:42:00Z,28.4330,-82.6670,16.32,1111122 
COMPS,ioos:station:USF.COMPS:ARP:1,2018-01-01T09:48:00Z,28.4330,-82.6670,16.3,1111122 
COMPS,ioos:station:USF.COMPS:ARP:1,2018-01-01T09:54:00Z,28.4330,-82.6670,16.43,1111122 
COMPS,ioos:station:USF.COMPS:ARP:1,2018-01-01T10:00:00Z,28.4330,-82.6670,16.32,1111122 
COMPS,ioos:station:USF.COMPS:ARP:1,2018-01-01T10:06:00Z,28.4330,-82.6670,16.35,1111122 
COMPS,ioos:station:USF.COMPS:ARP:1,2018-01-01T10:12:00Z,28.4330,-82.6670,16.38,1111122 
COMPS,ioos:station:USF.COMPS:ARP:1,2018-01-01T10:18:00Z,28.4330,-82.6670,16.45,1111122 
COMPS,ioos:station:USF.COMPS:ARP:1,2018-01-01T10:24:00Z,28.4330,-82.6670,16.51,1111122 
COMPS,ioos:station:USF.COMPS:ARP:1,2018-01-01T10:30:00Z,28.4330,-82.6670,16.59,1111122 
COMPS,ioos:station:USF.COMPS:ARP:1,2018-01-01T10:36:00Z,28.4330,-82.6670,16.64,1111122 
COMPS,ioos:station:USF.COMPS:ARP:1,2018-01-01T10:42:00Z,28.4330,-82.6670,16.47,1111122 
COMPS,ioos:station:USF.COMPS:ARP:1,2018-01-01T10:48:00Z,28.4330,-82.6670,15.78,1111122 
COMPS,ioos:station:USF.COMPS:ARP:1,2018-01-01T10:54:00Z,28.4330,-82.6670,16.05,1111122 
COMPS,ioos:station:USF.COMPS:ARP:1,2018-01-01T11:00:00Z,28.4330,-82.6670,15.35,1111122 
COMPS,ioos:station:USF.COMPS:ARP:1,2018-01-01T11:06:00Z,28.4330,-82.6670,15.2,1111122 
COMPS,ioos:station:USF.COMPS:ARP:1,2018-01-01T11:12:00Z,28.4330,-82.6670,15.0,1111122 
COMPS,ioos:station:USF.COMPS:ARP:1,2018-01-01T11:18:00Z,28.4330,-82.6670,14.84,1111122 
COMPS,ioos:station:USF.COMPS:ARP:1,2018-01-01T11:24:00Z,28.4330,-82.6670,14.6,1111122 
COMPS,ioos:station:USF.COMPS:ARP:1,2018-01-01T11:30:00Z,28.4330,-82.6670,14.51,1111122 
COMPS,ioos:station:USF.COMPS:ARP:1,2018-01-01T11:36:00Z,28.4330,-82.6670,14.4,1111122 
COMPS,ioos:station:USF.COMPS:ARP:1,2018-01-01T11:42:00Z,28.4330,-82.6670,14.19,1111122 
COMPS,ioos:station:USF.COMPS:ARP:1,2018-01-01T11:48:00Z,28.4330,-82.6670,13.96,1111122 
COMPS,ioos:station:USF.COMPS:ARP:1,2018-01-01T11:54:00Z,28.4330,-82.6670,13.88,1111122 
COMPS,ioos:station:USF.COMPS:ARP:1,2018-01-01T12:00:00Z,28.4330,-82.6670,13.53,1111122 
COMPS,ioos:station:USF.COMPS:ARP:1,2018-01-01T12:06:00Z,28.4330,-82.6670,13.33,1111122 
COMPS,ioos:station:USF.COMPS:ARP:1,2018-01-01T12:12:00Z,28.4330,-82.6670,13.15,1111122 
COMPS,ioos:station:USF.COMPS:ARP:1,2018-01-01T12:18:00Z,28.4330,-82.6670,12.72,1111122 
COMPS,ioos:station:USF.COMPS:ARP:1,2018-01-01T12:24:00Z,28.4330,-82.6670,12.24,1111122 
COMPS,ioos:station:USF.COMPS:ARP:1,2018-01-01T12:30:00Z,28.4330,-82.6670,12.04,1111122 
COMPS,ioos:station:USF.COMPS:ARP:1,2018-01-01T12:36:00Z,28.4330,-82.6670,11.92,1111122 
COMPS,ioos:station:USF.COMPS:ARP:1,2018-01-01T12:42:00Z,28.4330,-82.6670,11.85,1111122 
COMPS,ioos:station:USF.COMPS:ARP:1,2018-01-01T12:48:00Z,28.4330,-82.6670,11.86,1111122 
COMPS,ioos:station:USF.COMPS:ARP:1,2018-01-01T12:54:00Z,28.4330,-82.6670,11.9,1111122 
COMPS,ioos:station:USF.COMPS:ARP:1,2018-01-01T13:00:00Z,28.4330,-82.6670,11.57,1111122 
COMPS,ioos:station:USF.COMPS:ARP:1,2018-01-01T13:06:00Z,28.4330,-82.6670,11.53,1111122 
COMPS,ioos:station:USF.COMPS:ARP:1,2018-01-01T13:12:00Z,28.4330,-82.6670,11.44,1111122 
COMPS,ioos:station:USF.COMPS:ARP:1,2018-01-01T13:18:00Z,28.4330,-82.6670,11.37,1111122 
COMPS,ioos:station:USF.COMPS:ARP:1,2018-01-01T13:24:00Z,28.4330,-82.6670,11.32,1111122 
COMPS,ioos:station:USF.COMPS:ARP:1,2018-01-01T13:30:00Z,28.4330,-82.6670,11.35,1111122 
COMPS,ioos:station:USF.COMPS:ARP:1,2018-01-01T13:36:00Z,28.4330,-82.6670,11.2,1111122 
COMPS,ioos:station:USF.COMPS:ARP:1,2018-01-01T13:42:00Z,28.4330,-82.6670,11.07,1111122 
COMPS,ioos:station:USF.COMPS:ARP:1,2018-01-01T13:48:00Z,28.4330,-82.6670,11.02,1111122 
COMPS,ioos:station:USF.COMPS:ARP:1,2018-01-01T13:54:00Z,28.4330,-82.6670,11.05,1111122 
COMPS,ioos:station:USF.COMPS:ARP:1,2018-01-01T14:00:00Z,28.4330,-82.6670,10.78,1111122 
COMPS,ioos:station:USF.COMPS:ARP:1,2018-01-01T14:06:00Z,28.4330,-82.6670,10.73,1111122 
COMPS,ioos:station:USF.COMPS:ARP:1,2018-01-01T14:12:00Z,28.4330,-82.6670,10.6,1111122 
COMPS,ioos:station:USF.COMPS:ARP:1,2018-01-01T14:18:00Z,28.4330,-82.6670,10.51,1111122 
COMPS,ioos:station:USF.COMPS:ARP:1,2018-01-01T14:24:00Z,28.4330,-82.6670,10.61,1111122 
COMPS,ioos:station:USF.COMPS:ARP:1,2018-01-01T14:30:00Z,28.4330,-82.6670,10.51,1111122 
COMPS,ioos:station:USF.COMPS:ARP:1,2018-01-01T14:36:00Z,28.4330,-82.6670,10.3,1111122 
COMPS,ioos:station:USF.COMPS:ARP:1,2018-01-01T14:42:00Z,28.4330,-82.6670,10.35,1111122 
COMPS,ioos:station:USF.COMPS:ARP:1,2018-01-01T14:48:00Z,28.4330,-82.6670,10.31,1111122 
COMPS,ioos:station:USF.COMPS:ARP:1,2018-01-01T14:54:00Z,28.4330,-82.6670,10.14,1111122 
COMPS,ioos:station:USF.COMPS:ARP:1,2018-01-01T15:00:00Z,28.4330,-82.6670,9.94,1111122 
COMPS,ioos:station:USF.COMPS:ARP:1,2018-01-01T15:06:00Z,28.4330,-82.6670,10.01,1111122 
COMPS,ioos:station:USF.COMPS:ARP:1,2018-01-01T15:12:00Z,28.4330,-82.6670,9.89,1111122 
COMPS,ioos:station:USF.COMPS:ARP:1,2018-01-01T15:18:00Z,28.4330,-82.6670,9.83,1111122 
COMPS,ioos:station:USF.COMPS:ARP:1,2018-01-01T15:24:00Z,28.4330,-82.6670,9.76,1111122 
COMPS,ioos:station:USF.COMPS:ARP:1,2018-01-01T15:30:00Z,28.4330,-82.6670,9.73,1111122 
COMPS,ioos:station:USF.COMPS:ARP:1,2018-01-01T15:36:00Z,28.4330,-82.6670,9.69,1111122 
COMPS,ioos:station:USF.COMPS:ARP:1,2018-01-01T15:42:00Z,28.4330,-82.6670,9.68,1111122 
COMPS,ioos:station:USF.COMPS:ARP:1,2018-01-01T15:48:00Z,28.4330,-82.6670,9.59,1111122 
COMPS,ioos:station:USF.COMPS:ARP:1,2018-01-01T15:54:00Z,28.4330,-82.6670,9.57,1111122 
COMPS,ioos:station:USF.COMPS:ARP:1,2018-01-01T16:00:00Z,28.4330,-82.6670,9.27,1111122 
COMPS,ioos:station:USF.COMPS:ARP:1,2018-01-01T16:06:00Z,28.4330,-82.6670,9.24,1111122 
COMPS,ioos:station:USF.COMPS:ARP:1,2018-01-01T16:12:00Z,28.4330,-82.6670,9.26,1111122 
COMPS,ioos:station:USF.COMPS:ARP:1,2018-01-01T16:18:00Z,28.4330,-82.6670,9.32,1111122 
COMPS,ioos:station:USF.COMPS:ARP:1,2018-01-01T16:24:00Z,28.4330,-82.6670,9.19,1111122 
COMPS,ioos:station:USF.COMPS:ARP:1,2018-01-01T16:30:00Z,28.4330,-82.6670,9.1,1111122 
COMPS,ioos:station:USF.COMPS:ARP:1,2018-01-01T16:36:00Z,28.4330,-82.6670,9.12,1111122 
COMPS,ioos:station:USF.COMPS:ARP:1,2018-01-01T16:42:00Z,28.4330,-82.6670,9.17,1111122 
COMPS,ioos:station:USF.COMPS:ARP:1,2018-01-01T16:48:00Z,28.4330,-82.6670,9.09,1111122 
COMPS,ioos:station:USF.COMPS:ARP:1,2018-01-01T16:54:00Z,28.4330,-82.6670,9.1,1111122 
COMPS,ioos:station:USF.COMPS:ARP:1,2018-01-01T17:00:00Z,28.4330,-82.6670,8.92,1111122 
COMPS,ioos:station:USF.COMPS:ARP:1,2018-01-01T17:06:00Z,28.4330,-82.6670,8.73,1111122 
COMPS,ioos:station:USF.COMPS:ARP:1,2018-01-01T17:12:00Z,28.4330,-82.6670,8.64,1111122 
COMPS,ioos:station:USF.COMPS:ARP:1,2018-01-01T17:18:00Z,28.4330,-82.6670,8.68,1111122 
COMPS,ioos:station:USF.COMPS:ARP:1,2018-01-01T17:24:00Z,28.4330,-82.6670,8.73,1111122 
COMPS,ioos:station:USF.COMPS:ARP:1,2018-01-01T17:30:00Z,28.4330,-82.6670,8.75,1111122 
COMPS,ioos:station:USF.COMPS:ARP:1,2018-01-01T17:36:00Z,28.4330,-82.6670,8.52,1111122 
COMPS,ioos:station:USF.COMPS:ARP:1,2018-01-01T17:42:00Z,28.4330,-82.6670,8.32,1111122 
COMPS,ioos:station:USF.COMPS:ARP:1,2018-01-01T17:48:00Z,28.4330,-82.6670,8.18,1111122 
COMPS,ioos:station:USF.COMPS:ARP:1,2018-01-01T17:54:00Z,28.4330,-82.6670,8.05,1111122 
COMPS,ioos:station:USF.COMPS:ARP:1,2018-01-01T18:00:00Z,28.4330,-82.6670,7.79,1111122 
COMPS,ioos:station:USF.COMPS:ARP:1,2018-01-01T18:06:00Z,28.4330,-82.6670,7.66,1111122 
COMPS,ioos:station:USF.COMPS:ARP:1,2018-01-01T18:12:00Z,28.4330,-82.6670,7.64,1111122 
COMPS,ioos:station:USF.COMPS:ARP:1,2018-01-01T18:18:00Z,28.4330,-82.6670,7.69,1111122 
COMPS,ioos:station:USF.COMPS:ARP:1,2018-01-01T18:24:00Z,28.4330,-82.6670,7.81,1111122 
COMPS,ioos:station:USF.COMPS:ARP:1,2018-01-01T18:30:00Z,28.4330,-82.6670,7.69,1111122 
COMPS,ioos:station:USF.COMPS:ARP:1,2018-01-01T18:36:00Z,28.4330,-82.6670,7.36,1111122 
COMPS,ioos:station:USF.COMPS:ARP:1,2018-01-01T18:42:00Z,28.4330,-82.6670,7.36,1111122 
COMPS,ioos:station:USF.COMPS:ARP:1,2018-01-01T18:48:00Z,28.4330,-82.6670,7.27,1111122 
COMPS,ioos:station:USF.COMPS:ARP:1,2018-01-01T18:54:00Z,28.4330,-82.6670,7.22,1111122 
COMPS,ioos:station:USF.COMPS:ARP:1,2018-01-01T19:00:00Z,28.4330,-82.6670,7.06,1111122 
COMPS,ioos:station:USF.COMPS:ARP:1,2018-01-01T19:06:00Z,28.4330,-82.6670,6.99,1111122 
COMPS,ioos:station:USF.COMPS:ARP:1,2018-01-01T19:12:00Z,28.4330,-82.6670,6.9,1111122 
COMPS,ioos:station:USF.COMPS:ARP:1,2018-01-01T19:18:00Z,28.4330,-82.6670,6.57,1111122 
COMPS,ioos:station:USF.COMPS:ARP:1,2018-01-01T19:24:00Z,28.4330,-82.6670,6.49,1111122 
COMPS,ioos:station:USF.COMPS:ARP:1,2018-01-01T19:30:00Z,28.4330,-82.6670,6.49,1111122 
COMPS,ioos:station:USF.COMPS:ARP:1,2018-01-01T19:36:00Z,28.4330,-82.6670,6.49,1111122 
COMPS,ioos:station:USF.COMPS:ARP:1,2018-01-01T19:42:00Z,28.4330,-82.6670,6.42,1111122 
COMPS,ioos:station:USF.COMPS:ARP:1,2018-01-01T19:48:00Z,28.4330,-82.6670,6.39,1111122 
COMPS,ioos:station:USF.COMPS:ARP:1,2018-01-01T19:54:00Z,28.4330,-82.6670,6.53,1111122 
COMPS,ioos:station:USF.COMPS:ARP:1,2018-01-01T20:00:00Z,28.4330,-82.6670,6.51,1111122 
COMPS,ioos:station:USF.COMPS:ARP:1,2018-01-01T20:06:00Z,28.4330,-82.6670,6.49,1111122 
COMPS,ioos:station:USF.COMPS:ARP:1,2018-01-01T20:12:00Z,28.4330,-82.6670,6.46,1111122 
COMPS,ioos:station:USF.COMPS:ARP:1,2018-01-01T20:18:00Z,28.4330,-82.6670,6.46,1111122 
COMPS,ioos:station:USF.COMPS:ARP:1,2018-01-01T20:24:00Z,28.4330,-82.6670,6.57,1111122 
COMPS,ioos:station:USF.COMPS:ARP:1,2018-01-01T20:30:00Z,28.4330,-82.6670,6.54,1111122 
COMPS,ioos:station:USF.COMPS:ARP:1,2018-01-01T20:36:00Z,28.4330,-82.6670,6.52,1111122 
COMPS,ioos:station:USF.COMPS:ARP:1,2018-01-01T20:42:00Z,28.4330,-82.6670,6.32,1111122 
COMPS,ioos:station:USF.COMPS:ARP:1,2018-01-01T20:48:00Z,28.4330,-82.6670,6.26,1111122 
COMPS,ioos:station:USF.COMPS:ARP:1,2018-01-01T20:54:00Z,28.4330,-82.6670,6.32,1111122 
COMPS,ioos:station:USF.COMPS:ARP:1,2018-01-01T21:00:00Z,28.4330,-82.6670,6.09,1111122 
COMPS,ioos:station:USF.COMPS:ARP:1,2018-01-01T21:06:00Z,28.4330,-82.6670,5.97,1111122 
COMPS,ioos:station:USF.COMPS:ARP:1,2018-01-01T21:12:00Z,28.4330,-82.6670,5.96,1111122 
COMPS,ioos:station:USF.COMPS:ARP:1,2018-01-01T21:18:00Z,28.4330,-82.6670,5.86,1111122 
COMPS,ioos:station:USF.COMPS:ARP:1,2018-01-01T21:24:00Z,28.4330,-82.6670,5.72,1111122 
COMPS,ioos:station:USF.COMPS:ARP:1,2018-01-01T21:30:00Z,28.4330,-82.6670,5.51,1111122 
COMPS,ioos:station:USF.COMPS:ARP:1,2018-01-01T21:36:00Z,28.4330,-82.6670,5.4,1111122 
COMPS,ioos:station:USF.COMPS:ARP:1,2018-01-01T21:42:00Z,28.4330,-82.6670,5.21,1111122 
COMPS,ioos:station:USF.COMPS:ARP:1,2018-01-01T21:48:00Z,28.4330,-82.6670,5.07,1111122 
COMPS,ioos:station:USF.COMPS:ARP:1,2018-01-01T21:54:00Z,28.4330,-82.6670,5.13,1111122 
COMPS,ioos:station:USF.COMPS:ARP:1,2018-01-01T22:00:00Z,28.4330,-82.6670,5.0,1111122 
COMPS,ioos:station:USF.COMPS:ARP:1,2018-01-01T22:06:00Z,28.4330,-82.6670,4.99,1111122 
COMPS,ioos:station:USF.COMPS:ARP:1,2018-01-01T22:12:00Z,28.4330,-82.6670,5.02,1111122 
COMPS,ioos:station:USF.COMPS:ARP:1,2018-01-01T22:18:00Z,28.4330,-82.6670,4.94,1111122 
COMPS,ioos:station:USF.COMPS:ARP:1,2018-01-01T22:24:00Z,28.4330,-82.6670,4.83,1111122 
COMPS,ioos:station:USF.COMPS:ARP:1,2018-01-01T22:30:00Z,28.4330,-82.6670,4.77,1111122 
COMPS,ioos:station:USF.COMPS:ARP:1,2018-01-01T22:36:00Z,28.4330,-82.6670,4.73,1111122 
COMPS,ioos:station:USF.COMPS:ARP:1,2018-01-01T22:42:00Z,28.4330,-82.6670,4.82,1111122 
COMPS,ioos:station:USF.COMPS:ARP:1,2018-01-01T22:48:00Z,28.4330,-82.6670,4.73,1111122 
COMPS,ioos:station:USF.COMPS:ARP:1,2018-01-01T22:54:00Z,28.4330,-82.6670,4.65,1111122 
COMPS,ioos:station:USF.COMPS:ARP:1,2018-01-01T23:00:00Z,28.4330,-82.6670,4.52,1111122 
COMPS,ioos:station:USF.COMPS:ARP:1,2018-01-01T23:06:00Z,28.4330,-82.6670,4.54,1111122 
COMPS,ioos:station:USF.COMPS:ARP:1,2018-01-01T23:12:00Z,28.4330,-82.6670,4.56,1111122 
COMPS,ioos:station:USF.COMPS:ARP:1,2018-01-01T23:18:00Z,28.4330,-82.6670,4.59,1111122 
COMPS,ioos:station:USF.COMPS:ARP:1,2018-01-01T23:24:00Z,28.4330,-82.6670,4.59,1111122 
COMPS,ioos:station:USF.COMPS:ARP:1,2018-01-01T23:30:00Z,28.4330,-82.6670,4.64,1111122 
COMPS,ioos:station:USF.COMPS:ARP:1,2018-01-01T23:36:00Z,28.4330,-82.6670,4.64,1111122 
COMPS,ioos:station:USF.COMPS:ARP:1,2018-01-01T23:42:00Z,28.4330,-82.6670,4.62,1111122 
COMPS,ioos:station:USF.COMPS:ARP:1,2018-01-01T23:48:00Z,28.4330,-82.6670,4.62,1111122 
COMPS,ioos:station:USF.COMPS:ARP:1,2018-01-01T23:54:00Z,28.4330,-82.6670,4.77,1111122 
COMPS,ioos:station:USF.COMPS:ARP:1,2018-01-02T00:00:00Z,28.4330,-82.6670,4.76,1111122 
COMPS,ioos:station:USF.COMPS:ARP:1,2018-01-02T00:06:00Z,28.4330,-82.6670,4.52,1111122 
COMPS,ioos:station:USF.COMPS:ARP:1,2018-01-02T00:12:00Z,28.4330,-82.6670,4.37,1111122 
COMPS,ioos:station:USF.COMPS:ARP:1,2018-01-02T00:18:00Z,28.4330,-82.6670,4.31,1111122 
COMPS,ioos:station:USF.COMPS:ARP:1,2018-01-02T00:24:00Z,28.4330,-82.6670,4.36,1111122 
COMPS,ioos:station:USF.COMPS:ARP:1,2018-01-02T00:30:00Z,28.4330,-82.6670,4.3,1111122 
COMPS,ioos:station:USF.COMPS:ARP:1,2018-01-02T00:36:00Z,28.4330,-82.6670,4.38,1111122 
COMPS,ioos:station:USF.COMPS:ARP:1,2018-01-02T00:42:00Z,28.4330,-82.6670,4.35,1111122 
COMPS,ioos:station:USF.COMPS:ARP:1,2018-01-02T00:48:00Z,28.4330,-82.6670,4.3,1111122 
COMPS,ioos:station:USF.COMPS:ARP:1,2018-01-02T00:54:00Z,28.4330,-82.6670,4.38,1111122 
COMPS,ioos:station:USF.COMPS:ARP:1,2018-01-02T01:00:00Z,28.4330,-82.6670,4.33,1111122 
COMPS,ioos:station:USF.COMPS:ARP:1,2018-01-02T01:06:00Z,28.4330,-82.6670,4.26,1111122 
COMPS,ioos:station:USF.COMPS:ARP:1,2018-01-02T01:12:00Z,28.4330,-82.6670,4.19,1111122 
COMPS,ioos:station:USF.COMPS:ARP:1,2018-01-02T01:18:00Z,28.4330,-82.6670,4.2,1111122 
COMPS,ioos:station:USF.COMPS:ARP:1,2018-01-02T01:24:00Z,28.4330,-82.6670,4.1,1111122 
COMPS,ioos:station:USF.COMPS:ARP:1,2018-01-02T01:30:00Z,28.4330,-82.6670,3.99,1111122 
COMPS,ioos:station:USF.COMPS:ARP:1,2018-01-02T01:36:00Z,28.4330,-82.6670,3.92,1111122 
COMPS,ioos:station:USF.COMPS:ARP:1,2018-01-02T01:42:00Z,28.4330,-82.6670,3.86,1111122 
COMPS,ioos:station:USF.COMPS:ARP:1,2018-01-02T01:48:00Z,28.4330,-82.6670,3.75,1111122 
COMPS,ioos:station:USF.COMPS:ARP:1,2018-01-02T01:54:00Z,28.4330,-82.6670,3.88,1111122 
COMPS,ioos:station:USF.COMPS:ARP:1,2018-01-02T02:00:00Z,28.4330,-82.6670,3.7,1111122 
COMPS,ioos:station:USF.COMPS:ARP:1,2018-01-02T02:06:00Z,28.4330,-82.6670,3.72,1111122 
COMPS,ioos:station:USF.COMPS:ARP:1,2018-01-02T02:12:00Z,28.4330,-82.6670,3.71,1111122 
COMPS,ioos:station:USF.COMPS:ARP:1,2018-01-02T02:18:00Z,28.4330,-82.6670,3.67,1111122 
COMPS,ioos:station:USF.COMPS:ARP:1,2018-01-02T02:24:00Z,28.4330,-82.6670,3.7,1111122 
COMPS,ioos:station:USF.COMPS:ARP:1,2018-01-02T02:30:00Z,28.4330,-82.6670,3.76,1111122 
COMPS,ioos:station:USF.COMPS:ARP:1,2018-01-02T02:36:00Z,28.4330,-82.6670,3.75,1111122 
COMPS,ioos:station:USF.COMPS:ARP:1,2018-01-02T02:42:00Z,28.4330,-82.6670,3.68,1111122 
COMPS,ioos:station:USF.COMPS:ARP:1,2018-01-02T02:48:00Z,28.4330,-82.6670,3.67,1111122 
COMPS,ioos:station:USF.COMPS:ARP:1,2018-01-02T02:54:00Z,28.4330,-82.6670,3.66,1111122 
COMPS,ioos:station:USF.COMPS:ARP:1,2018-01-02T03:00:00Z,28.4330,-82.6670,3.52,1111122 
COMPS,ioos:station:USF.COMPS:ARP:1,2018-01-02T03:06:00Z,28.4330,-82.6670,3.52,1111122 
COMPS,ioos:station:USF.COMPS:ARP:1,2018-01-02T03:12:00Z,28.4330,-82.6670,3.53,1111122 